Pecos, TX

9:46 PM CDT on April 30, 2017 (GMT -0500)
Pecos Municipal

Weather History for KPEQ - June, 2012

Change the Weather History Date:

Tuesday, June 19, 2012

  Actual Average Record
Temperature  
Mean Temperature 87 °F -  
Max Temperature 105 °F 99 °F 114 °F (1960)
Min Temperature 69 °F 67 °F 59 °F (1961)
Cooling Degree Days 22    
Growing Degree Days 37 (Base 50)    
Moisture  
Dew Point 49 °F    
Average Humidity 30    
Maximum Humidity 59    
Minimum Humidity 7    
Precipitation  
Precipitation 0.00 in - - ()
Sea Level Pressure  
Sea Level Pressure 29.69 in    
Wind  
Wind Speed 12 mph (East)    
Max Wind Speed 28 mph    
Max Gust Speed 37 mph    
Visibility 10 miles    
Events      
Averages and records for this station are not official NWS values.
T = Trace of Precipitation, MM = Missing Value Source: NWS Daily Summary

Daily Weather History Graph

Daily Weather History Graph

Search for Another Location

Airport or City:

Trip Planner

Search our weather history database for the weather conditions in past years. The results will help you decide how hot, cold, wet, or windy it might be!

Date:

Astronomy

Jun. 19, 2012 Rise Set
Actual Time 6:49 AM CDT 9:01 PM CDT
Civil Twilight 6:21 AM CDT 9:29 PM CDT
Nautical Twilight 5:47 AM CDT 10:03 PM CDT
Astronomical Twilight 5:10 AM CDT 10:40 PM CDT
Moon 6:54 AM CDT (6/19) 9:10 PM CDT (6/19)
Length of Visible Light 15h 07m
Length of Day
14h 11m
New Moon, 0% of the Moon is Illuminated
Jun 19
New Moon
Jun 26
First Quarter
Jul 3
Full
Jul 10
Last Quarter
Jul 18
New

Hourly Weather History & Observations

Time (CDT) Temp. Heat Index Dew Point Humidity Pressure Visibility Wind Dir Wind Speed Gust Speed Precip Events Conditions
12:15 AM 85.8 °F - 51.8 °F 31% 29.70 in 10.0 mi ESE 16.1 mph - N/A   Clear
12:55 AM 84.4 °F 82.8 °F 53.2 °F 34% 29.70 in 10.0 mi ESE 16.1 mph - N/A   Clear
1:15 AM 83.7 °F 82.4 °F 54.3 °F 36% 29.70 in 10.0 mi ESE 15.0 mph - N/A   Clear
1:35 AM 82.8 °F 81.9 °F 54.7 °F 38% 29.70 in 10.0 mi ESE 16.1 mph - N/A   Clear
1:55 AM 82.0 °F 81.4 °F 54.9 °F 39% 29.69 in 10.0 mi ESE 16.1 mph - N/A   Clear
2:15 AM 81.3 °F 80.9 °F 55.0 °F 40% 29.70 in 10.0 mi ESE 13.8 mph - N/A   Clear
2:35 AM 80.6 °F 80.4 °F 54.9 °F 41% 29.70 in 10.0 mi ESE 12.7 mph 18.4 mph N/A   Clear
2:55 AM 80.1 °F 80.1 °F 54.9 °F 42% 29.69 in 10.0 mi ESE 11.5 mph - N/A   Clear
3:15 AM 79.2 °F - 54.7 °F 43% 29.69 in 10.0 mi ESE 11.5 mph - N/A   Clear
3:35 AM 78.6 °F - 54.3 °F 43% 29.68 in 10.0 mi ESE 11.5 mph - N/A   Clear
5:35 AM 73.4 °F - 52.9 °F 49% 29.68 in 10.0 mi East 5.8 mph - N/A   Clear
5:55 AM 71.4 °F - 52.9 °F 52% 29.69 in 10.0 mi Calm Calm - N/A   Clear
6:15 AM 69.8 °F - 52.5 °F 54% 29.70 in 10.0 mi Calm Calm - N/A   Clear
6:35 AM 70.2 °F - 52.3 °F 53% 29.70 in 10.0 mi ENE 5.8 mph - N/A   Clear
7:15 AM 69.4 °F - 54.1 °F 58% 29.70 in 10.0 mi East 8.1 mph - N/A   Clear
7:35 AM 70.7 °F - 55.8 °F 59% 29.71 in 10.0 mi East 6.9 mph - N/A   Clear
7:55 AM 72.3 °F - 56.7 °F 58% 29.71 in 10.0 mi ENE 6.9 mph - N/A   Clear
8:15 AM 74.3 °F - 57.2 °F 55% 29.72 in 10.0 mi ENE 6.9 mph - N/A   Clear
8:35 AM 76.1 °F - 57.0 °F 51% 29.72 in 10.0 mi East 8.1 mph - N/A   Clear
8:55 AM 78.1 °F - 55.8 °F 46% 29.72 in 10.0 mi East 8.1 mph - N/A   Clear
9:15 AM 80.4 °F 80.2 °F 54.1 °F 40% 29.72 in 10.0 mi ENE 8.1 mph - N/A   Clear
9:35 AM 82.8 °F - 52.7 °F 35% 29.72 in 10.0 mi NE 8.1 mph - N/A   Clear
9:55 AM 85.1 °F - 51.6 °F 31% 29.72 in 10.0 mi ENE 6.9 mph - N/A   Clear
10:15 AM 87.3 °F - 49.3 °F 27% 29.73 in 10.0 mi NE 4.6 mph - N/A   Clear
10:55 AM 90.0 °F - 47.1 °F 23% 29.72 in 10.0 mi NE 5.8 mph - N/A   Clear
11:15 AM 90.7 °F - 46.9 °F 22% 29.72 in 10.0 mi NE 4.6 mph - N/A   Clear
11:35 AM 92.3 °F - 47.3 °F 21% 29.72 in 10.0 mi NE 3.5 mph - N/A   Clear
11:55 AM 94.1 °F - 46.4 °F 19% 29.72 in 10.0 mi NE 3.5 mph - N/A   Clear
12:15 PM 96.1 °F - 44.8 °F 17% 29.72 in 10.0 mi NE 5.8 mph - N/A   Clear
12:35 PM 97.0 °F - 42.4 °F 15% 29.71 in 10.0 mi NNE 9.2 mph - N/A   Clear
12:55 PM 98.6 °F - 42.3 °F 14% 29.71 in 10.0 mi NNE 8.1 mph - N/A   Clear
1:55 PM 102.2 °F - 33.8 °F 9% 29.69 in 10.0 mi WNW 10.4 mph - N/A   Clear
2:15 PM 102.9 °F - 31.1 °F 8% 29.68 in 10.0 mi Calm Calm - N/A   Clear
2:35 PM 103.5 °F - 31.5 °F 8% 29.68 in 10.0 mi North 5.8 mph - N/A   Clear
2:55 PM 104.0 °F - 32.0 °F 8% 29.67 in 10.0 mi WNW 3.5 mph - N/A   Clear
3:35 PM 104.5 °F - 32.2 °F 8% 29.66 in 10.0 mi North 5.8 mph - N/A   Clear
3:55 PM 104.7 °F - 31.6 °F 8% 29.65 in 10.0 mi SW 5.8 mph - N/A   Clear
5:35 PM 105.6 °F - 31.3 °F 8% 29.62 in 10.0 mi East 10.4 mph - N/A   Clear
5:55 PM 105.8 °F - 30.9 °F 7% 29.62 in 10.0 mi Calm Calm - N/A   Clear
6:15 PM 105.3 °F - 30.4 °F 7% 29.62 in 10.0 mi ENE 6.9 mph - N/A   Clear
6:35 PM 105.4 °F - 30.4 °F 7% 29.62 in 10.0 mi East 4.6 mph - N/A   Clear
6:55 PM 104.2 °F - 44.1 °F 13% 29.61 in 10.0 mi East 18.4 mph 31.1 mph N/A   Clear
7:15 PM 102.0 °F - 49.6 °F 17% 29.61 in 10.0 mi ESE 24.2 mph 31.1 mph N/A   Clear
7:35 PM 100.4 °F - 51.8 °F 20% 29.61 in 10.0 mi ESE 27.6 mph 33.4 mph N/A   Clear
8:35 PM 94.8 °F 93.1 °F 55.8 °F 27% 29.63 in 10.0 mi ESE 26.5 mph 35.7 mph N/A   Clear
8:55 PM 93.2 °F 91.3 °F 55.8 °F 28% 29.64 in 10.0 mi ESE 25.3 mph 36.8 mph N/A   Clear
9:15 PM 91.9 °F 90.0 °F 55.8 °F 29% 29.65 in 10.0 mi ESE 27.6 mph 32.2 mph N/A   Clear
9:35 PM 90.9 °F 89.2 °F 55.9 °F 31% 29.66 in 10.0 mi SE 24.2 mph 33.4 mph N/A   Clear
9:55 PM 90.0 °F 88.3 °F 56.5 °F 32% 29.67 in 10.0 mi ESE 25.3 mph 34.5 mph N/A   Clear
10:15 PM 89.1 °F 87.5 °F 56.7 °F 33% 29.69 in 10.0 mi ESE 23.0 mph 31.1 mph N/A   Clear
10:35 PM 88.2 °F 86.7 °F 56.7 °F 34% 29.70 in 10.0 mi ESE 18.4 mph 29.9 mph N/A   Clear
10:55 PM 87.4 °F 86.1 °F 56.5 °F 35% 29.71 in 10.0 mi SE 20.7 mph 27.6 mph N/A   Clear
11:15 PM 86.7 °F 85.3 °F 56.1 °F 35% 29.72 in 10.0 mi ESE 18.4 mph 24.2 mph N/A   Clear
11:35 PM 86.2 °F 84.7 °F 55.8 °F 35% 29.72 in 10.0 mi SE 21.9 mph 31.1 mph N/A   Clear
11:55 PM 85.6 °F 84.1 °F 55.0 °F 35% 29.72 in 10.0 mi SE 24.2 mph 29.9 mph N/A   Clear